Time,TemperatureF,DewpointF,PressureIn,WindDirection,WindDirectionDegrees,WindSpeedMPH,WindSpeedGustMPH,Humidity,HourlyPrecipIn,Conditions,Clouds,dailyrainin,SoftwareType,DateUTC
2013-03-21 00:03:00,34.0,28.0,29.96,NNW,327,4.0,10.0,77,0.00,,,0.00,,2013-03-21 04:03:00,
2013-03-21 00:13:00,34.0,28.0,29.96,NNW,327,4.0,10.0,77,0.00,,,0.00,,2013-03-21 04:13:00,
2013-03-21 00:23:00,33.0,27.0,29.96,WNW,294,5.0,9.0,77,0.00,,,0.00,,2013-03-21 04:23:00,
2013-03-21 00:33:00,33.0,27.0,29.95,NW,318,6.0,12.0,77,0.00,,,0.00,,2013-03-21 04:33:00,
2013-03-21 00:43:00,33.0,27.0,29.95,NW,318,6.0,12.0,77,0.00,,,0.00,,2013-03-21 04:43:00,
2013-03-21 00:53:00,32.0,26.0,29.95,NW,309,5.0,9.0,78,0.00,,,0.00,,2013-03-21 04:53:00,
2013-03-21 01:03:00,32.0,26.0,29.95,NW,310,4.0,10.0,78,0.00,,,0.00,,2013-03-21 05:03:00,
2013-03-21 01:12:00,32.0,26.0,29.95,NW,310,4.0,10.0,78,0.00,,,0.00,,2013-03-21 05:12:00,
2013-03-21 01:22:00,32.0,26.0,29.95,WNW,298,4.0,7.0,79,0.00,,,0.00,,2013-03-21 05:22:00,
2013-03-21 01:33:00,31.0,25.0,29.95,NW,306,3.0,7.0,77,0.00,,,0.00,,2013-03-21 05:33:00,
2013-03-21 01:44:00,31.0,25.0,29.95,NW,306,3.0,7.0,77,0.00,,,0.00,,2013-03-21 05:44:00,
2013-03-21 01:52:00,31.0,24.0,29.95,NW,311,4.0,7.0,74,0.00,,,0.00,,2013-03-21 05:52:00,
2013-03-21 02:03:00,30.0,22.0,29.95,NW,322,1.0,6.0,72,0.00,,,0.00,,2013-03-21 06:03:00,
2013-03-21 02:12:00,30.0,22.0,29.95,NW,322,1.0,6.0,72,0.00,,,0.00,,2013-03-21 06:12:00,
2013-03-21 02:22:00,30.0,22.0,29.96,NW,326,1.0,6.0,72,0.00,,,0.00,,2013-03-21 06:22:00,
2013-03-21 02:32:00,29.0,21.0,29.96,NNW,340,1.0,6.0,73,0.00,,,0.00,,2013-03-21 06:32:00,
2013-03-21 02:42:00,29.0,21.0,29.96,NNW,340,1.0,6.0,73,0.00,,,0.00,,2013-03-21 06:42:00,
2013-03-21 02:52:00,29.0,21.0,29.96,NNW,333,5.0,10.0,73,0.00,,,0.00,,2013-03-21 06:52:00,
2013-03-21 03:02:00,29.0,21.0,29.96,North,355,3.0,10.0,72,0.00,,,0.00,,2013-03-21 07:02:00,
2013-03-21 03:13:00,29.0,21.0,29.96,North,355,3.0,10.0,72,0.00,,,0.00,,2013-03-21 07:13:00,
2013-03-21 03:22:00,28.0,20.0,29.96,North,355,3.0,8.0,70,0.00,,,0.00,,2013-03-21 07:22:00,
2013-03-21 03:32:00,27.0,17.0,29.95,NNW,341,3.0,6.0,66,0.00,,,0.00,,2013-03-21 07:32:00,
2013-03-21 03:42:00,27.0,17.0,29.95,NNW,341,3.0,6.0,66,0.00,,,0.00,,2013-03-21 07:42:00,
2013-03-21 03:52:00,27.0,17.0,29.95,North,355,4.0,8.0,66,0.00,,,0.00,,2013-03-21 07:52:00,
2013-03-21 04:02:00,27.0,17.0,29.95,North,355,4.0,8.0,66,0.00,,,0.00,,2013-03-21 08:02:00,
2013-03-21 04:13:00,26.0,16.0,29.96,NW,323,4.0,11.0,66,0.00,,,0.00,,2013-03-21 08:13:00,
2013-03-21 04:23:00,26.0,16.0,29.96,NW,323,4.0,11.0,66,0.00,,,0.00,,2013-03-21 08:23:00,
2013-03-21 04:33:00,25.0,15.0,29.95,North,355,5.0,7.0,65,0.00,,,0.00,,2013-03-21 08:33:00,
2013-03-21 04:42:00,25.0,15.0,29.95,North,355,5.0,7.0,65,0.00,,,0.00,,2013-03-21 08:42:00,
2013-03-21 04:52:00,25.0,15.0,29.95,North,355,2.0,5.0,65,0.00,,,0.00,,2013-03-21 08:52:00,
2013-03-21 05:02:00,24.0,14.0,29.95,NNW,332,3.0,7.0,65,0.00,,,0.00,,2013-03-21 09:02:00,
2013-03-21 05:11:00,24.0,14.0,29.95,NNW,332,3.0,7.0,65,0.00,,,0.00,,2013-03-21 09:11:00,
2013-03-21 05:22:00,24.0,14.0,29.95,NNW,347,2.0,6.0,66,0.00,,,0.00,,2013-03-21 09:22:00,
2013-03-21 05:33:00,24.0,15.0,29.94,NNW,347,1.0,4.0,68,0.00,,,0.00,,2013-03-21 09:33:00,
2013-03-21 05:43:00,24.0,15.0,29.94,NNW,347,1.0,4.0,68,0.00,,,0.00,,2013-03-21 09:43:00,
2013-03-21 05:53:00,23.0,14.0,29.94,NNW,331,3.0,10.0,67,0.00,,,0.00,,2013-03-21 09:53:00,
2013-03-21 06:03:00,23.0,13.0,29.95,NNW,343,4.0,6.0,65,0.00,,,0.00,,2013-03-21 10:03:00,
2013-03-21 06:12:00,23.0,13.0,29.95,NNW,343,4.0,6.0,65,0.00,,,0.00,,2013-03-21 10:12:00,
2013-03-21 06:23:00,23.0,13.0,29.95,NNW,343,4.0,6.0,65,0.00,,,0.00,,2013-03-21 10:23:00,
2013-03-21 06:34:00,22.0,12.0,29.95,NNW,339,0.0,5.0,66,0.00,,,0.00,,2013-03-21 10:34:00,
2013-03-21 06:42:00,22.0,12.0,29.95,NNW,339,0.0,5.0,66,0.00,,,0.00,,2013-03-21 10:42:00,
2013-03-21 06:53:00,22.0,12.0,29.95,NNW,339,1.0,3.0,66,0.00,,,0.00,,2013-03-21 10:53:00,
2013-03-21 07:03:00,21.0,12.0,29.95,NNW,338,0.0,4.0,67,0.00,,,0.00,,2013-03-21 11:03:00,
2013-03-21 07:12:00,21.0,12.0,29.95,NNW,338,0.0,4.0,67,0.00,,,0.00,,2013-03-21 11:12:00,
2013-03-21 07:22:00,21.0,11.0,29.95,NNW,327,5.0,11.0,64,0.00,,,0.00,,2013-03-21 11:22:00,
2013-03-21 07:33:00,21.0,9.0,29.95,NW,318,5.0,13.0,60,0.00,,,0.00,,2013-03-21 11:33:00,
2013-03-21 07:43:00,21.0,9.0,29.95,NW,318,5.0,13.0,60,0.00,,,0.00,,2013-03-21 11:43:00,
2013-03-21 07:52:00,20.0,9.0,29.96,NNW,339,4.0,7.0,61,0.00,,,0.00,,2013-03-21 11:52:00,
2013-03-21 08:03:00,20.0,9.0,29.96,North,350,2.0,9.0,61,0.00,,,0.00,,2013-03-21 12:03:00,
2013-03-21 08:12:00,20.0,9.0,29.96,North,350,2.0,9.0,61,0.00,,,0.00,,2013-03-21 12:12:00,
2013-03-21 08:22:00,20.0,9.0,29.93,North,350,2.0,5.0,61,0.00,,,0.00,,2013-03-21 12:22:00,
2013-03-21 08:33:00,20.0,9.0,29.94,NW,319,1.0,5.0,61,0.00,,,0.00,,2013-03-21 12:33:00,
2013-03-21 08:43:00,20.0,9.0,29.94,NW,319,1.0,5.0,61,0.00,,,0.00,,2013-03-21 12:43:00,
2013-03-21 08:52:00,20.0,9.0,29.95,NW,318,2.0,4.0,61,0.00,,,0.00,,2013-03-21 12:52:00,
2013-03-21 09:03:00,21.0,9.0,29.96,NNW,348,6.0,8.0,60,0.00,,,0.00,,2013-03-21 13:03:00,
2013-03-21 09:12:00,21.0,9.0,29.96,NNW,348,6.0,8.0,60,0.00,,,0.00,,2013-03-21 13:12:00,
2013-03-21 09:22:00,21.0,10.0,29.96,NNW,340,4.0,10.0,61,0.00,,,0.00,,2013-03-21 13:22:00,
2013-03-21 09:32:00,22.0,10.0,29.97,WNW,291,3.0,7.0,59,0.00,,,0.00,,2013-03-21 13:32:00,
2013-03-21 09:42:00,22.0,10.0,29.97,WNW,291,3.0,7.0,59,0.00,,,0.00,,2013-03-21 13:42:00,
2013-03-21 09:52:00,22.0,9.0,29.97,NW,307,0.0,9.0,57,0.00,,,0.00,,2013-03-21 13:52:00,
2013-03-21 10:02:00,23.0,9.0,29.98,NW,315,2.0,12.0,55,0.00,,,0.00,,2013-03-21 14:02:00,
2013-03-21 10:12:00,23.0,8.0,29.98,North,349,6.0,11.0,53,0.00,,,0.00,,2013-03-21 14:12:00,
2013-03-21 10:22:00,23.0,8.0,29.98,North,349,6.0,11.0,53,0.00,,,0.00,,2013-03-21 14:22:00,
2013-03-21 10:32:00,24.0,9.0,29.98,West,276,7.0,11.0,51,0.00,,,0.00,,2013-03-21 14:32:00,
2013-03-21 10:42:00,24.0,9.0,29.98,West,276,7.0,11.0,51,0.00,,,0.00,,2013-03-21 14:42:00,
2013-03-21 10:52:00,24.0,9.0,29.98,NW,322,3.0,8.0,52,0.00,,,0.00,,2013-03-21 14:52:00,
2013-03-21 11:04:00,25.0,9.0,29.98,WNW,292,5.0,10.0,51,0.00,,,0.00,,2013-03-21 15:04:00,
2013-03-21 11:12:00,25.0,9.0,29.98,WNW,292,5.0,10.0,51,0.00,,,0.00,,2013-03-21 15:12:00,
2013-03-21 11:22:00,25.0,9.0,29.98,WNW,292,5.0,10.0,51,0.00,,,0.00,,2013-03-21 15:22:00,
2013-03-21 11:33:00,27.0,9.0,29.99,NW,310,6.0,10.0,47,0.00,,,0.00,,2013-03-21 15:33:00,
2013-03-21 11:43:00,27.0,9.0,29.99,NW,310,6.0,10.0,47,0.00,,,0.00,,2013-03-21 15:43:00,
2013-03-21 11:53:00,27.0,9.0,29.99,NW,310,6.0,10.0,47,0.00,,,0.00,,2013-03-21 15:53:00,
2013-03-21 12:03:00,28.0,9.0,29.98,NW,311,4.0,10.0,45,0.00,,,0.00,,2013-03-21 16:03:00,
2013-03-21 12:12:00,28.0,9.0,29.98,NW,311,4.0,10.0,45,0.00,,,0.00,,2013-03-21 16:12:00,
2013-03-21 12:23:00,29.0,10.0,29.98,WNW,299,1.0,10.0,45,0.00,,,0.00,,2013-03-21 16:23:00,
2013-03-21 12:33:00,30.0,10.0,29.98,NW,318,8.0,14.0,43,0.00,,,0.00,,2013-03-21 16:33:00,
2013-03-21 12:42:00,30.0,10.0,29.98,NW,318,8.0,14.0,43,0.00,,,0.00,,2013-03-21 16:42:00,
2013-03-21 12:52:00,30.0,10.0,29.98,NNW,344,3.0,9.0,43,0.00,,,0.00,,2013-03-21 16:52:00,
2013-03-21 13:03:00,31.0,11.0,29.98,WNW,299,5.0,12.0,43,0.00,,,0.00,,2013-03-21 17:03:00,
2013-03-21 13:12:00,31.0,11.0,29.98,WNW,299,5.0,12.0,43,0.00,,,0.00,,2013-03-21 17:12:00,
2013-03-21 13:23:00,31.0,11.0,29.97,WNW,291,4.0,13.0,42,0.00,,,0.00,,2013-03-21 17:23:00,
2013-03-21 13:33:00,32.0,11.0,29.96,NW,314,6.0,11.0,41,0.00,,,0.00,,2013-03-21 17:33:00,
2013-03-21 13:43:00,32.0,11.0,29.96,NW,314,6.0,11.0,41,0.00,,,0.00,,2013-03-21 17:43:00,
2013-03-21 13:52:00,32.0,11.0,29.96,NW,314,6.0,11.0,41,0.00,,,0.00,,2013-03-21 17:52:00,
2013-03-21 14:02:00,33.0,11.0,29.96,NW,309,5.0,10.0,40,0.00,,,0.00,,2013-03-21 18:02:00,
2013-03-21 14:12:00,33.0,11.0,29.96,NW,309,5.0,10.0,40,0.00,,,0.00,,2013-03-21 18:12:00,
2013-03-21 14:23:00,34.0,13.0,29.96,WNW,298,4.0,11.0,41,0.00,,,0.00,,2013-03-21 18:23:00,
2013-03-21 14:32:00,35.0,13.0,29.96,West,272,6.0,11.0,39,0.00,,,0.00,,2013-03-21 18:32:00,
2013-03-21 14:42:00,35.0,13.0,29.96,West,272,6.0,11.0,39,0.00,,,0.00,,2013-03-21 18:42:00,
2013-03-21 14:52:00,34.0,12.0,29.96,WNW,295,4.0,11.0,40,0.00,,,0.00,,2013-03-21 18:52:00,
2013-03-21 15:02:00,36.0,13.0,29.95,NW,306,9.0,13.0,38,0.00,,,0.00,,2013-03-21 19:02:00,
2013-03-21 15:12:00,36.0,13.0,29.95,NW,306,9.0,13.0,38,0.00,,,0.00,,2013-03-21 19:12:00,
2013-03-21 15:22:00,36.0,13.0,29.95,WNW,292,5.0,13.0,39,0.00,,,0.00,,2013-03-21 19:22:00,
2013-03-21 15:32:00,38.0,14.0,29.95,NW,305,5.0,10.0,37,0.00,,,0.00,,2013-03-21 19:32:00,
2013-03-21 15:43:00,38.0,14.0,29.95,NW,305,5.0,10.0,37,0.00,,,0.00,,2013-03-21 19:43:00,
2013-03-21 15:52:00,37.0,14.0,29.94,WSW,250,5.0,11.0,38,0.00,,,0.00,,2013-03-21 19:52:00,
2013-03-21 16:02:00,38.0,15.0,29.94,NW,306,7.0,12.0,38,0.00,,,0.00,,2013-03-21 20:02:00,
2013-03-21 16:12:00,38.0,15.0,29.94,NW,306,7.0,12.0,38,0.00,,,0.00,,2013-03-21 20:12:00,
2013-03-21 16:22:00,38.0,15.0,29.94,NW,306,7.0,12.0,38,0.00,,,0.00,,2013-03-21 20:22:00,
2013-03-21 16:33:00,39.0,16.0,29.93,West,265,7.0,14.0,38,0.00,,,0.00,,2013-03-21 20:33:00,
2013-03-21 16:42:00,39.0,16.0,29.93,West,265,7.0,14.0,38,0.00,,,0.00,,2013-03-21 20:42:00,
2013-03-21 16:53:00,38.0,14.0,29.93,NNW,343,6.0,12.0,37,0.00,,,0.00,,2013-03-21 20:53:00,
2013-03-21 17:03:00,38.0,14.0,29.93,NNW,343,6.0,12.0,37,0.00,,,0.00,,2013-03-21 21:03:00,
2013-03-21 17:12:00,38.0,14.0,29.93,NNW,343,6.0,12.0,37,0.00,,,0.00,,2013-03-21 21:12:00,
2013-03-21 17:22:00,39.0,16.0,29.93,West,273,1.0,10.0,38,0.00,,,0.00,,2013-03-21 21:22:00,
2013-03-21 17:33:00,39.0,15.0,29.93,NW,319,3.0,12.0,37,0.00,,,0.00,,2013-03-21 21:33:00,
2013-03-21 17:43:00,39.0,15.0,29.93,NW,319,3.0,12.0,37,0.00,,,0.00,,2013-03-21 21:43:00,
2013-03-21 17:53:00,39.0,14.0,29.93,NNW,340,4.0,10.0,36,0.00,,,0.00,,2013-03-21 21:53:00,
2013-03-21 18:03:00,39.0,15.0,29.93,WNW,282,6.0,11.0,37,0.00,,,0.00,,2013-03-21 22:03:00,
2013-03-21 18:13:00,39.0,15.0,29.93,WNW,282,6.0,11.0,37,0.00,,,0.00,,2013-03-21 22:13:00,
2013-03-21 18:23:00,39.0,16.0,29.92,WNW,288,0.0,10.0,38,0.00,,,0.00,,2013-03-21 22:23:00,
2013-03-21 18:33:00,39.0,15.0,29.92,North,355,3.0,11.0,37,0.00,,,0.00,,2013-03-21 22:33:00,
2013-03-21 18:42:00,39.0,15.0,29.92,North,355,3.0,11.0,37,0.00,,,0.00,,2013-03-21 22:42:00,
2013-03-21 18:52:00,39.0,15.0,29.92,WNW,284,4.0,10.0,37,0.00,,,0.00,,2013-03-21 22:52:00,
2013-03-21 19:02:00,39.0,15.0,29.92,WNW,296,5.0,10.0,37,0.00,,,0.00,,2013-03-21 23:02:00,
2013-03-21 19:12:00,39.0,15.0,29.92,WNW,296,5.0,10.0,37,0.00,,,0.00,,2013-03-21 23:12:00,
2013-03-21 19:22:00,38.0,14.0,29.92,WNW,301,5.0,9.0,37,0.00,,,0.00,,2013-03-21 23:22:00,
2013-03-21 19:33:00,37.0,14.0,29.92,WNW,296,3.0,6.0,38,0.00,,,0.00,,2013-03-21 23:33:00,
2013-03-21 19:43:00,37.0,14.0,29.92,WNW,296,3.0,6.0,38,0.00,,,0.00,,2013-03-21 23:43:00,
2013-03-21 19:52:00,37.0,14.0,29.92,WNW,296,3.0,6.0,38,0.00,,,0.00,,2013-03-21 23:52:00,
2013-03-21 20:03:00,37.0,15.0,29.92,WNW,295,1.0,4.0,40,0.00,,,0.00,,2013-03-22 00:03:00,
2013-03-21 20:12:00,37.0,15.0,29.92,WNW,295,1.0,4.0,40,0.00,,,0.00,,2013-03-22 00:12:00,
2013-03-21 20:22:00,36.0,15.0,29.93,WNW,295,3.0,3.0,41,0.00,,,0.00,,2013-03-22 00:22:00,
2013-03-21 20:32:00,35.0,14.0,29.93,WNW,295,4.0,5.0,42,0.00,,,0.00,,2013-03-22 00:32:00,
2013-03-21 20:42:00,35.0,14.0,29.93,WNW,295,4.0,5.0,42,0.00,,,0.00,,2013-03-22 00:42:00,
2013-03-21 20:52:00,35.0,15.0,29.93,NW,306,5.0,6.0,43,0.00,,,0.00,,2013-03-22 00:52:00,
2013-03-21 21:03:00,35.0,15.0,29.93,NW,309,3.0,4.0,43,0.00,,,0.00,,2013-03-22 01:03:00,
2013-03-21 21:12:00,35.0,15.0,29.93,NW,309,3.0,4.0,43,0.00,,,0.00,,2013-03-22 01:12:00,
2013-03-21 21:22:00,34.0,14.0,29.94,NW,309,4.0,6.0,44,0.00,,,0.00,,2013-03-22 01:22:00,
2013-03-21 21:32:00,34.0,15.0,29.94,NW,309,5.0,7.0,45,0.00,,,0.00,,2013-03-22 01:32:00,
2013-03-21 21:43:00,34.0,15.0,29.94,NW,309,5.0,7.0,45,0.00,,,0.00,,2013-03-22 01:43:00,
2013-03-21 21:53:00,34.0,15.0,29.94,NW,309,6.0,7.0,45,0.00,,,0.00,,2013-03-22 01:53:00,
2013-03-21 22:03:00,33.0,15.0,29.95,NW,307,7.0,9.0,46,0.00,,,0.00,,2013-03-22 02:03:00,
2013-03-21 22:12:00,33.0,15.0,29.95,NW,307,7.0,9.0,46,0.00,,,0.00,,2013-03-22 02:12:00,
2013-03-21 22:22:00,33.0,15.0,29.96,NW,307,7.0,10.0,46,0.00,,,0.00,,2013-03-22 02:22:00,
2013-03-21 22:32:00,33.0,15.0,29.96,NW,307,7.0,10.0,46,0.00,,,0.00,,2013-03-22 02:32:00,
2013-03-21 22:43:00,33.0,15.0,29.96,NW,307,7.0,10.0,46,0.00,,,0.00,,2013-03-22 02:43:00,
2013-03-21 22:52:00,33.0,15.0,29.93,NW,309,8.0,10.0,47,0.00,,,0.00,,2013-03-22 02:52:00,
2013-03-21 23:02:00,33.0,15.0,29.94,NW,311,7.0,11.0,46,0.00,,,0.00,,2013-03-22 03:02:00,
2013-03-21 23:12:00,33.0,15.0,29.94,NW,311,7.0,11.0,46,0.00,,,0.00,,2013-03-22 03:12:00,
2013-03-21 23:22:00,33.0,15.0,29.95,NW,310,7.0,9.0,46,0.00,,,0.00,,2013-03-22 03:22:00,
2013-03-21 23:33:00,32.0,14.0,29.95,NW,307,7.0,10.0,47,0.00,,,0.00,,2013-03-22 03:33:00,
2013-03-21 23:43:00,32.0,14.0,29.95,NW,307,7.0,10.0,47,0.00,,,0.00,,2013-03-22 03:43:00,
2013-03-21 23:53:00,32.0,14.0,29.95,NW,307,7.0,10.0,47,0.00,,,0.00,,2013-03-22 03:53:00,